Temp
16 16 17 18 19 20 19 20 17 20 18 18 19 19 18 17 16 16 15 14 13 12 12 11 10 10 10 10 11 11 11 11 11 10 10 10 10 8 7 7 9 10 9 9
17 17 18 18 19 19 19 20 21 20 19 18 19 19 19 17 17 16 16 15 14 13 12 12 11 11 10 10 11 11 10 10 10 10 10 10 8 7 7 8 10 10 9 9
17 18 18 18 19 19 19 20 20 20 19 19 19 20 19 19 17 17 16 16 15 14 13 12 12 11 10 10 11 11 10 10 10 9 9 9 9 9 9 10 10 10 10 10
17 18 18 18 19 19 19 19 20 19 19 20 20 21 21 19 19 18 17 16 16 15 14 13 13 12 11 10 12 11 11 10 9 9 9 9 9 9 9 8 8 10 9 10
17 17 18 18 18 18 19 19 19 19 19 20 21 21 21 21 20 19 18 17 17 16 15 14 14 13 12 11 11 12 12 11 10 10 10 10 9 8 8 8 8 10 10 10
17 17 17 17 18 18 18 19 18 18 19 20 21 21 21 21 20 20 19 18 17 17 15 14 14 13 12 12 11 13 13 12 11 11 10 10 10 10 10 9 9 10 10 10
16 17 16 17 18 18 18 19 19 20 21 22 21 21 21 20 20 19 18 18 17 17 16 15 14 14 13 12 11 13 13 13 12 11 11 11 10 10 10 10 10 10 10 10
18 18 17 17 17 18 18 19 20 20 22 23 22 21 21 20 19 18 17 17 17 17 16 15 14 14 13 12 12 13 14 13 12 12 11 11 10 10 10 11 11 10 10 10
19 19 18 18 17 18 19 18 20 21 22 22 22 21 20 19 19 18 17 17 16 16 16 15 15 14 13 13 14 14 14 13 13 12 12 12 11 11 11 11 11 11 11 11
18 19 18 17 17 18 18 19 20 20 21 21 22 20 20 18 18 18 18 17 16 16 15 15 15 15 14 13 13 14 14 14 13 13 13 12 13 12 12 12 11 11 11 10
18 19 18 18 17 18 18 19 20 21 21 22 22 21 19 18 18 18 17 18 17 16 16 15 15 14 14 13 13 14 14 14 14 13 13 12 12 12 11 11 11 11 11 10
17 19 18 18 18 19 19 19 20 20 20 20 21 19 18 17 17 17 17 17 16 16 16 15 15 14 15 13 13 12 14 14 14 13 13 12 12 12 12 11 10 10 11 10
18 19 20 19 19 18 18 19 20 21 21 20 21 19 18 17 16 16 16 16 17 16 16 15 16 16 15 15 15 15 14 14 14 14 13 13 13 12 12 11 11 11 11 10
17 19 19 20 20 19 19 19 19 20 21 21 21 19 17 17 16 15 15 15 15 15 15 15 15 16 16 16 15 15 15 14 14 14 14 14 14 13 13 12 12 11 11 11
17 19 19 19 19 19 19 19 19 19 20 20 20 19 17 16 15 15 16 15 14 15 14 16 15 16 16 15 15 15 15 14 14 14 14 14 14 13 13 13 12 11 11 11
17 18 19 19 18 19 19 19 19 19 19 19 18 18 16 15 14 14 14 13 15 15 15 15 15 15 15 16 15 15 15 15 14 14 14 14 14 13 14 13 13 12 11 10
18 19 18 19 18 18 19 19 19 19 19 19 19 17 16 15 14 14 13 13 14 14 14 14 14 14 14 15 15 15 15 14 14 14 13 13 13 14 14 13 13 13 12 10
18 18 18 17 17 19 18 17 18 18 18 18 17 16 16 15 14 13 13 13 14 14 14 14 14 14 14 14 14 15 15 14 14 14 12 13 13 12 13 13 13 13 12 12
18 18 19 19 18 19 18 17 17 17 18 17 17 16 16 15 15 14 13 14 14 14 13 14 14 14 14 14 14 14 14 14 14 14 13 12 12 13 12 13 13 12 12 12
17 18 18 18 18 17 15 18 17 17 17 17 17 16 16 15 15 13 12 13 14 13 13 13 11 11 12 14 14 14 14 14 13 13 13 13 12 13 12 12 12 12 12 11
16 16 17 18 17 18 17 16 16 16 16 16 16 16 15 15 14 14 13 13 13 13 13 13 10 10 11 13 12 12 12 12 12 12 12 12 13 12 12 12 12 12 11 11
16 16 17 17 17 16 15 16 16 15 14 14 15 15 14 14 13 14 13 13 13 13 13 12 10 9 9 9 11 11 11 11 11 12 11 11 11 12 12 11 11 11 10 9
14 15 15 15 13 13 13 14 14 14 13 14 13 14 14 13 12 12 11 11 11 11 11 10 9 9 9 9 9 10 10 10 11 11 11 11 11 11 12 11 11 10 9 8
13 12 13 14 14 13 13 12 13 14 14 12 12 12 12 12 12 11 11 11 10 10 10 9 9 8 9 9 10 10 10 10 10 11 11 11 11 11 11 11 11 11 11 9
12 12 13 13 13 12 12 11 11 12 13 11 12 11 11 11 11 11 10 10 9 9 9 9 10 10 9 9 10 10 10 10 10 10 10 11 11 10 10 10 10 9 9 9
12 12 12 13 11 11 11 10 11 10 11 10 11 11 11 11 10 10 10 9 9 8 10 10 10 10 10 9 10 10 9 9 10 10 10 10 10 10 10 10 10 9 9 9
Height
3184 3187 3185 3187 3187 3184 3186 3182 3185 3184 3190 3191 3189 3188 3188 3190 3191 3193 3195 3195 3195 3196 3198 3200 3200 3202 3203 3201 3202 3203 3204 3205 3207 3208 3209 3210 3210 3210 3211 3211 3211 3211 3210 3211
3183 3180 3183 3185 3185 3187 3187 3185 3182 3184 3188 3191 3189 3187 3186 3188 3190 3192 3194 3195 3195 3196 3197 3197 3198 3200 3201 3200 3201 3202 3203 3203 3205 3206 3207 3208 3209 3212 3211 3210 3210 3210 3210 3210
3176 3178 3181 3182 3184 3184 3187 3184 3182 3183 3186 3188 3187 3182 3184 3186 3187 3189 3190 3192 3193 3193 3194 3195 3196 3198 3199 3198 3199 3200 3202 3203 3204 3205 3206 3207 3207 3208 3208 3209 3209 3209 3210 3210
3174 3176 3177 3179 3180 3183 3184 3184 3184 3184 3188 3184 3185 3183 3180 3181 3185 3184 3186 3188 3190 3190 3191 3194 3196 3196 3197 3197 3198 3199 3200 3201 3202 3203 3204 3206 3207 3207 3208 3209 3209 3208 3209 3209
3172 3173 3174 3176 3178 3182 3183 3183 3183 3184 3185 3184 3180 3181 3176 3179 3179 3181 3185 3186 3187 3188 3189 3191 3194 3195 3197 3197 3196 3198 3199 3199 3200 3201 3203 3204 3205 3207 3208 3209 3208 3208 3208 3207
3168 3170 3172 3174 3177 3179 3181 3182 3185 3185 3184 3179 3175 3176 3172 3175 3180 3180 3181 3183 3184 3185 3186 3188 3192 3195 3195 3196 3195 3196 3197 3198 3198 3200 3201 3203 3204 3205 3206 3207 3206 3207 3207 3207
3167 3168 3170 3172 3174 3176 3178 3180 3180 3178 3173 3169 3167 3171 3173 3174 3177 3178 3180 3180 3179 3180 3182 3186 3189 3193 3194 3194 3194 3194 3195 3196 3198 3199 3200 3201 3203 3204 3204 3205 3207 3206 3206 3206
3161 3164 3166 3168 3170 3172 3175 3176 3174 3171 3164 3159 3160 3166 3172 3174 3177 3177 3178 3178 3178 3179 3182 3185 3188 3191 3192 3193 3193 3193 3194 3195 3196 3197 3199 3200 3202 3202 3203 3205 3205 3205 3206 3205
3155 3159 3160 3165 3167 3170 3169 3173 3172 3167 3161 3159 3159 3164 3171 3174 3175 3178 3178 3179 3178 3179 3182 3184 3187 3189 3191 3190 3191 3192 3192 3193 3195 3196 3198 3199 3200 3202 3202 3203 3203 3203 3203 3203
3155 3156 3160 3164 3166 3168 3167 3169 3169 3168 3164 3162 3160 3168 3169 3174 3177 3178 3178 3180 3180 3180 3181 3184 3187 3188 3189 3189 3189 3190 3191 3192 3194 3195 3196 3197 3199 3200 3200 3200 3201 3201 3201 3202
3154 3153 3158 3162 3163 3164 3168 3167 3165 3163 3161 3159 3159 3163 3169 3174 3178 3179 3179 3181 3182 3182 3183 3185 3185 3185 3187 3187 3188 3188 3188 3189 3191 3192 3193 3195 3197 3198 3198 3199 3199 3199 3200 3199
3153 3151 3153 3158 3160 3161 3163 3165 3165 3164 3167 3164 3161 3169 3172 3173 3177 3179 3179 3180 3181 3182 3183 3183 3184 3182 3182 3184 3184 3185 3185 3187 3189 3190 3191 3193 3194 3195 3196 3196 3196 3196 3197 3197
3151 3148 3149 3154 3160 3161 3162 3161 3161 3159 3157 3160 3162 3168 3171 3173 3176 3178 3179 3179 3178 3179 3180 3181 3180 3180 3180 3180 3180 3179 3181 3184 3186 3188 3188 3190 3191 3191 3193 3193 3193 3194 3194 3194
3150 3144 3145 3148 3148 3154 3159 3160 3161 3157 3157 3157 3159 3165 3172 3174 3176 3177 3177 3178 3178 3179 3179 3179 3180 3178 3178 3176 3176 3176 3176 3180 3183 3185 3186 3185 3187 3187 3189 3189 3190 3191 3191 3191
3151 3145 3148 3149 3151 3153 3155 3157 3161 3160 3157 3157 3159 3161 3168 3173 3176 3176 3175 3176 3177 3178 3177 3177 3177 3177 3176 3174 3173 3172 3173 3175 3178 3181 3183 3183 3184 3185 3186 3186 3186 3186 3187 3187
3151 3150 3150 3152 3155 3156 3157 3157 3158 3160 3159 3160 3165 3159 3165 3170 3173 3174 3174 3175 3174 3175 3176 3176 3175 3175 3174 3172 3171 3169 3169 3171 3175 3178 3180 3184 3184 3185 3184 3184 3183 3182 3182 3185
3151 3148 3152 3150 3153 3156 3154 3153 3157 3158 3161 3162 3158 3155 3161 3170 3172 3173 3173 3174 3174 3174 3175 3175 3174 3173 3172 3170 3169 3168 3167 3170 3170 3172 3176 3178 3178 3178 3179 3180 3180 3178 3177 3179
3148 3148 3150 3152 3156 3152 3149 3154 3155 3157 3160 3159 3159 3139 3159 3168 3170 3170 3171 3172 3172 3172 3173 3173 3172 3171 3170 3169 3168 3168 3168 3167 3168 3168 3173 3173 3176 3177 3171 3172 3174 3173 3172 3172
3146 3148 3147 3147 3149 3149 3150 3153 3157 3159 3160 3161 3162 3160 3165 3169 3171 3170 3169 3168 3169 3169 3169 3169 3168 3167 3167 3165 3164 3164 3164 3164 3163 3162 3162 3162 3170 3168 3163 3163 3167 3167 3167 3166
3146 3146 3147 3148 3147 3153 3155 3148 3154 3157 3159 3160 3162 3164 3167 3170 3170 3167 3168 3166 3166 3166 3165 3165 3164 3163 3159 3158 3157 3157 3158 3156 3156 3156 3152 3152 3158 3157 3156 3158 3159 3159 3159 3158
3146 3147 3146 3145 3147 3146 3147 3152 3154 3158 3161 3158 3161 3163 3165 3168 3168 3166 3165 3165 3164 3164 3163 3161 3159 3157 3150 3151 3150 3149 3150 3150 3149 3149 3148 3149 3148 3147 3148 3150 3151 3152 3151 3149
3144 3145 3145 3144 3144 3148 3151 3153 3155 3154 3155 3158 3160 3161 3163 3164 3163 3163 3163 3163 3162 3161 3159 3157 3154 3151 3149 3146 3144 3143 3143 3143 3143 3144 3143 3143 3143 3144 3144 3143 3142 3144 3143 3126
3147 3145 3144 3147 3149 3147 3149 3150 3149 3152 3154 3155 3156 3157 3158 3161 3161 3159 3159 3158 3157 3155 3153 3152 3151 3148 3146 3143 3139 3139 3138 3138 3137 3136 3137 3137 3136 3136 3136 3135 3134 3136 3136 3116
3142 3141 3143 3145 3146 3144 3145 3144 3146 3148 3150 3151 3153 3154 3154 3157 3157 3156 3156 3155 3153 3151 3149 3147 3144 3142 3140 3137 3133 3133 3131 3131 3130 3129 3128 3128 3126 3127 3128 3128 3127 3125 3126 3132
3139 3139 3141 3142 3143 3143 3143 3143 3143 3144 3146 3148 3150 3151 3151 3153 3153 3153 3151 3149 3147 3145 3143 3140 3137 3135 3133 3131 3128 3127 3125 3124 3122 3120 3119 3119 3118 3118 3118 3119 3118 3120 3123 3126
3138 3139 3141 3140 3139 3140 3141 3140 3140 3142 3144 3144 3146 3147 3147 3148 3148 3147 3146 3144 3140 3136 3135 3133 3131 3128 3126 3123 3121 3119 3118 3116 3115 3113 3111 3109 3108 3107 3108 3108 3110 3112 3113 3116
Wind_Speed
23 23 28 23 18 18 12 10 13 5 3 8 7 7 7 3 9 11 12 15 16 17 18 19 19 18 16 18 16 14 14 14 12 10 9 8 6 5 6 5 8 4 3 4
22 31 23 20 20 18 13 14 9 8 4 7 9 9 6 9 8 10 12 15 17 18 20 21 21 21 20 19 16 15 14 13 12 13 12 10 8 7 8 8 5 5 5 5
26 20 21 23 22 19 18 19 13 7 1 11 9 17 4 8 8 8 12 13 16 20 21 22 24 23 21 20 17 15 14 12 12 12 14 12 9 9 9 8 6 5 5 5
21 22 17 23 24 20 24 17 16 9 9 16 5 11 9 12 7 12 12 14 15 19 22 22 22 23 22 21 16 17 17 15 14 14 15 12 10 10 6 7 9 6 4 4
19 19 20 21 23 22 23 17 12 12 16 17 16 11 7 8 5 4 4 9 14 17 22 23 22 22 21 20 18 15 15 15 15 15 15 14 14 11 13 8 13 6 5 5
18 14 18 19 19 21 20 21 14 15 18 21 17 16 5 1 3 4 2 6 10 16 23 24 22 21 20 21 18 14 14 13 13 14 16 16 15 12 12 15 11 7 7 6
18 15 14 15 18 18 20 21 18 17 18 13 17 3 10 12 10 5 6 5 6 14 22 25 25 23 21 22 20 14 14 15 13 14 15 15 16 14 13 12 8 7 8 7
17 19 16 16 19 17 19 22 21 11 12 16 2 3 4 3 8 4 2 4 6 11 16 22 23 23 22 22 20 16 15 16 15 15 15 15 15 14 13 10 10 10 7 8
14 17 15 14 17 18 16 22 23 25 24 10 10 7 3 5 4 4 4 7 8 10 13 18 22 21 22 21 17 15 15 16 16 15 16 15 14 13 11 10 10 8 8 11
7 13 9 14 14 16 12 12 17 11 6 4 6 3 13 8 5 5 6 5 6 9 11 12 15 19 21 22 20 18 18 15 14 14 14 12 10 8 9 10 9 10 7 9
8 17 13 15 17 18 15 12 14 13 3 6 7 13 10 10 7 5 5 5 4 3 7 8 9 14 18 22 24 24 24 20 19 16 15 13 9 11 12 12 10 10 10 8
14 12 12 17 14 17 15 14 15 10 13 10 15 14 7 10 8 6 5 6 5 6 5 6 8 10 13 19 23 29 31 28 24 20 18 15 13 13 12 13 12 12 11 11
15 9 17 14 12 14 15 15 19 19 8 5 13 14 9 8 9 9 7 5 4 4 2 3 6 6 9 15 17 23 34 32 27 23 22 19 18 17 15 14 14 11 12 14
15 14 10 14 16 17 17 10 11 13 12 11 10 15 11 8 8 8 8 9 7 7 9 5 2 4 6 10 15 16 27 34 32 28 24 22 21 20 18 19 18 14 13 14
14 13 5 7 7 5 4 10 11 14 12 7 7 13 11 9 9 9 4 7 5 4 4 5 2 2 5 8 11 17 21 34 33 29 27 23 24 25 23 19 22 21 18 16
16 6 6 4 3 6 9 13 9 13 8 7 8 11 13 12 10 9 6 6 3 2 3 2 1 2 4 6 8 11 21 26 33 34 33 30 28 28 24 22 16 19 21 18
16 11 9 13 6 4 14 12 13 12 13 12 11 17 15 10 8 5 5 4 1 2 3 3 1 1 4 4 6 9 13 25 32 38 37 33 33 29 23 28 22 20 19 18
17 14 11 11 9 9 7 6 4 7 13 13 7 7 10 6 4 4 3 1 5 4 3 4 4 4 7 8 8 5 7 16 28 31 32 34 28 28 32 30 29 24 21 17
11 15 12 7 12 6 8 9 9 12 11 13 11 5 2 2 5 9 6 9 11 9 11 12 14 15 15 13 14 14 15 16 16 19 26 20 25 36 30 34 35 30 26 23
13 15 15 12 16 7 19 12 10 5 10 10 12 10 8 6 7 13 5 6 13 15 18 19 13 13 19 22 21 19 17 19 19 20 22 25 33 28 32 36 39 36 31 29
18 15 17 17 15 10 4 6 7 6 3 5 11 11 11 8 9 12 11 11 15 16 18 20 14 11 24 22 19 15 14 19 19 19 20 26 28 30 35 36 42 43 38 36
12 17 19 19 15 11 3 9 11 8 6 5 8 11 10 11 15 18 17 15 16 18 21 22 14 12 13 18 17 16 15 16 18 22 21 21 24 25 26 31 40 43 41 27
15 15 16 6 4 8 4 7 11 15 10 17 11 18 16 10 8 7 8 11 12 16 19 16 12 12 11 17 19 18 18 18 20 21 22 25 26 30 30 30 30 33 29 28
10 13 15 16 16 10 7 8 14 16 15 10 11 11 12 9 10 8 9 10 12 14 15 14 15 15 18 21 25 23 24 23 22 22 22 24 27 30 31 32 33 32 29 29
3 1 9 12 13 8 8 8 8 15 19 10 11 10 11 11 11 12 13 14 15 14 19 23 26 26 27 26 27 25 24 22 22 22 21 22 25 29 30 31 32 32 32 31
9 10 9 2 4 7 3 6 7 7 8 11 11 12 13 14 15 15 16 17 18 24 31 32 32 32 31 33 32 30 26 25 25 25 23 23 24 28 31 33 33 32 32 34
Wind_Direction
217 217 221 223 225 253 274 280 271 147 271 324 331 310 213 231 196 209 213 209 206 201 199 200 192 194 198 201 198 194 192 200 203 203 205 213 219 235 233 211 257 262 264 296
213 222 223 227 231 236 250 258 245 220 262 302 308 298 219 209 196 209 216 221 214 210 204 201 203 202 201 212 210 209 204 197 203 207 211 216 218 238 239 247 256 268 276 295
218 226 227 226 230 237 233 241 259 290 255 294 279 280 205 206 212 216 219 219 224 211 207 207 206 203 208 216 223 220 219 215 211 215 218 220 229 224 236 246 258 247 268 293
227 224 232 228 232 231 234 232 259 272 274 280 332 299 273 177 236 235 218 217 221 220 212 206 206 206 209 214 227 224 223 223 222 223 222 221 224 229 254 254 260 247 254 282
228 223 228 232 225 226 234 239 266 254 256 263 255 261 269 254 273 113 234 241 229 227 213 205 206 208 206 211 218 225 225 220 219 219 219 213 222 223 221 238 241 256 255 268
217 228 225 231 229 228 229 235 249 255 253 264 268 242 243 152 319 314 252 263 242 227 211 209 200 209 206 209 211 226 230 217 215 210 212 215 221 218 215 250 246 253 262 283
219 228 235 220 223 222 223 224 239 234 236 241 254 161 290 299 297 303 283 240 211 200 201 202 199 200 209 206 209 226 227 222 213 215 213 213 218 222 225 242 258 272 268 269
206 215 219 216 213 207 222 223 229 229 252 263 128 209 303 291 266 279 110 158 170 176 193 198 203 200 210 207 216 225 227 226 217 217 220 219 225 233 240 252 256 261 272 284
203 238 199 215 208 208 212 223 228 259 277 265 302 76 204 131 81 130 122 131 138 159 180 191 202 206 210 217 228 223 216 219 220 220 223 225 227 234 243 250 259 268 280 284
260 207 195 200 196 212 233 215 219 234 280 321 133 250 122 101 106 112 119 124 133 151 162 179 195 210 216 221 221 213 210 217 214 212 216 219 229 235 248 254 264 273 278 291
231 224 179 196 206 199 201 215 226 262 306 311 246 105 117 128 115 117 128 126 130 170 177 196 205 209 219 217 218 221 222 219 229 228 227 233 245 249 252 265 270 276 284 288
199 253 176 201 205 200 210 213 213 211 212 229 303 112 126 125 120 110 102 115 152 166 191 208 219 237 239 221 223 226 226 226 224 236 240 242 243 250 264 266 273 278 289 289
196 234 143 159 190 211 218 217 238 234 250 115 278 117 138 133 127 108 97 81 103 132 158 190 253 302 278 254 258 246 231 226 228 233 243 248 250 256 260 269 264 283 279 277
201 251 72 252 184 170 202 199 232 260 213 189 194 143 145 135 126 103 87 82 94 120 130 136 173 294 305 291 270 262 239 226 227 232 242 253 256 258 264 268 271 269 281 279
210 263 113 75 118 162 202 189 213 247 259 50 64 134 130 148 144 123 73 68 72 151 170 162 144 286 296 291 279 260 236 230 230 236 239 248 259 257 259 264 266 267 272 279
217 267 204 189 228 238 226 238 236 226 246 237 183 132 144 138 132 124 107 95 47 122 166 180 220 272 293 305 287 267 239 233 234 236 244 250 259 264 278 260 260 260 260 264
216 223 211 244 176 243 243 212 218 212 217 228 233 153 139 148 143 136 124 114 60 115 156 156 203 23 327 322 294 272 249 232 231 231 236 237 242 245 255 260 259 257 252 248
213 229 213 120 238 231 126 149 164 201 212 233 246 109 127 158 159 159 156 163 291 288 311 316 309 308 301 303 295 286 262 249 241 238 245 236 231 262 254 251 251 249 244 237
216 219 229 231 227 201 201 208 210 216 238 232 241 236 235 223 227 253 210 284 305 323 323 321 316 299 298 292 283 280 277 272 265 251 262 249 245 247 247 241 242 244 234 231
225 228 240 225 271 177 249 187 177 216 249 228 204 225 227 246 272 157 160 293 300 308 317 321 321 318 298 300 291 281 273 271 266 267 257 244 240 240 250 246 243 243 231 229
225 234 238 244 234 261 92 193 178 211 263 150 207 217 228 253 248 271 275 281 288 303 313 310 313 314 302 300 300 291 266 252 256 257 251 250 248 246 247 248 244 245 235 227
223 216 236 248 259 258 167 219 233 235 278 210 220 227 247 241 243 251 261 277 292 294 292 298 310 303 309 302 293 291 279 272 267 256 258 254 255 257 262 262 254 247 247 225
235 249 270 298 357 296 177 216 215 233 258 260 246 272 263 233 234 248 273 288 298 303 304 307 304 301 306 287 288 291 291 288 280 272 265 261 257 255 259 258 262 263 262 242
227 256 239 259 265 265 267 265 260 253 244 247 252 238 227 228 242 258 273 281 287 299 303 300 297 291 284 286 294 296 290 288 291 283 277 268 265 265 260 257 259 258 260 257
236 215 225 242 250 270 282 253 252 257 249 234 227 226 242 244 257 269 274 283 291 290 302 300 295 292 289 289 288 293 291 286 292 293 284 280 270 262 259 255 254 253 251 249
239 229 225 349 196 202 258 233 250 241 247 239 237 248 255 261 265 270 275 279 283 287 302 300 294 286 284 286 287 287 288 290 291 294 294 287 276 265 257 254 252 250 250 250